User: anonymous   Login
Location: Unspecified
(0.0000°N, 0.0000°E)
Time: 11:04:09
(UTC+00:00)
Language:

SARAL - Orbit

View from above orbital plane
View from above orbital plane
View from above satellite
View from above satellite

Ground track
Ground track

The orbit data is extracted from the following two-line orbital elements,

1 39086U 13009A   17268.92770556 +.00000005 +00000-0 +17922-4 0  9994
2 39086 098.5410 094.9511 0000823 025.8052 334.3173 14.32011218239527
Epoch (UTC): 25 September 2017 22:15:53
Eccentricity: 0.0000823
inclination: 98.5410°
perigee height: 784 km
apogee height: 785 km
right ascension of ascending node: 94.9511°
argument of perigee: 25.8052°
revolutions per day: 14.32011218
mean anomaly at epoch: 334.3173°
orbit number at epoch: 23952

The dashed part of the orbit path shows where the satellite is in the earth's shadow,  

DLR